When you browse on this site, cookies collect data to enhance your experience and personalize the content and advertising you see.
Visit our Privacy Policy to learn more. By continuing to use the site, you agree to this use of cookies and data.
  • în România
  • Lista ţărilor
  • Pe 7 zile
  • Temperatura apei
  • Hartă satelitară
  • Meteo pe hartă
  • Widget-uri
  • user-avatar
    Intrare

    Meteo pe oră la Guduvancheri

    Astăzi, 19 Februarie, Marţi

    Timp Temperatura Precipitaţii Vânt Presiune Umiditate
    00:00 +28°C° 0 mm 3 m/s 755 mmHg 86%
    01:00 +27°C° 0 mm 2 m/s 754 mmHg 87%
    02:00 +27°C° 0 mm 2 m/s 754 mmHg 89%
    03:00 +27°C° 0 mm 2 m/s 754 mmHg 90%
    04:00 +27°C° 0 mm 2 m/s 754 mmHg 91%
    05:00 +27°C° 0 mm 1 m/s 754 mmHg 93%
    06:00 +28°C° 0 mm 1 m/s 755 mmHg 87%
    07:00 +29°C° 0 mm 1 m/s 755 mmHg 81%
    08:00 +30°C° 0 mm 2 m/s 756 mmHg 76%
    09:00 +31°C° 0 mm 2 m/s 756 mmHg 68%
    10:00 +34°C° 0 mm 3 m/s 756 mmHg 59%
    11:00 +35°C° 0 mm 4 m/s 756 mmHg 51%
    12:00 +35°C° 0 mm 4 m/s 756 mmHg 51%
    13:00 +36°C° 0 mm 5 m/s 755 mmHg 50%
    14:00 +36°C° 0 mm 5 m/s 755 mmHg 50%
    15:00 +34°C° 0 mm 5 m/s 755 mmHg 55%
    16:00 +33°C° 0 mm 5 m/s 755 mmHg 60%
    17:00 +32°C° 0 mm 5 m/s 755 mmHg 65%
    18:00 +30°C° 0 mm 4 m/s 756 mmHg 72%
    19:00 +29°C° 0 mm 4 m/s 756 mmHg 79%
    20:00 +28°C° 0 mm 3 m/s 757 mmHg 86%
    21:00 +27°C° 0 mm 3 m/s 757 mmHg 87%
    22:00 +27°C° 0 mm 2 m/s 757 mmHg 89%
    23:00 +27°C° 0 mm 2 m/s 757 mmHg 91%

    Mâine, 20 Februarie, Miercuri

    Timp Temperatura Precipitaţii Vânt Presiune Umiditate
    00:00 +26°C° 0 mm 2 m/s 757 mmHg 91%
    01:00 +26°C° 0 mm 2 m/s 757 mmHg 92%
    02:00 +26°C° 0 mm 1 m/s 757 mmHg 93%
    03:00 +26°C° 0 mm 1 m/s 757 mmHg 93%
    04:00 +25°C° 0 mm 1 m/s 757 mmHg 93%
    05:00 +25°C° 0 mm 1 m/s 757 mmHg 94%
    06:00 +26°C° 0 mm 1 m/s 757 mmHg 87%
    07:00 +27°C° 0 mm 2 m/s 758 mmHg 81%
    08:00 +29°C° 0 mm 2 m/s 758 mmHg 75%
    09:00 +30°C° 0 mm 3 m/s 758 mmHg 66%
    10:00 +33°C° 0 mm 3 m/s 758 mmHg 58%
    11:00 +34°C° 0 mm 4 m/s 759 mmHg 49%
    12:00 +34°C° 0 mm 4 m/s 758 mmHg 48%
    13:00 +34°C° 0 mm 5 m/s 757 mmHg 47%
    14:00 +35°C° 0 mm 5 m/s 756 mmHg 46%
    15:00 +33°C° 0 mm 5 m/s 757 mmHg 52%
    16:00 +32°C° 0 mm 4 m/s 757 mmHg 58%
    17:00 +30°C° 0 mm 4 m/s 757 mmHg 63%
    18:00 +29°C° 0 mm 3 m/s 757 mmHg 69%
    19:00 +28°C° 0 mm 3 m/s 758 mmHg 75%
    20:00 +27°C° 0 mm 2 m/s 759 mmHg 81%
    21:00 +26°C° 0 mm 2 m/s 759 mmHg 82%
    22:00 +26°C° 0 mm 2 m/s 759 mmHg 84%
    23:00 +26°C° 0 mm 1 m/s 759 mmHg 86%

    Poimâine, 21 Februarie, Joi

    Timp Temperatura Precipitaţii Vânt Presiune Umiditate
    00:00 +26°C° 0 mm 1 m/s 759 mmHg 87%
    01:00 +25°C° 0 mm 1 m/s 758 mmHg 88%
    02:00 +25°C° 0 mm 1 m/s 758 mmHg 90%
    03:00 +25°C° 0 mm 1 m/s 758 mmHg 89%
    04:00 +25°C° 0 mm 1 m/s 758 mmHg 89%
    05:00 +25°C° 0 mm 1 m/s 758 mmHg 88%
    06:00 +26°C° 0 mm 2 m/s 759 mmHg 82%
    07:00 +27°C° 0 mm 2 m/s 759 mmHg 76%
    08:00 +28°C° 0 mm 2 m/s 760 mmHg 70%
    09:00 +30°C° 0 mm 3 m/s 760 mmHg 63%
    10:00 +32°C° 0 mm 4 m/s 760 mmHg 56%
    11:00 +33°C° 0 mm 4 m/s 760 mmHg 49%
    12:00 +34°C° 0 mm 5 m/s 759 mmHg 47%
    13:00 +34°C° 0 mm 5 m/s 758 mmHg 44%
    14:00 +35°C° 0 mm 5 m/s 757 mmHg 42%
    15:00 +33°C° 0 mm 5 m/s 757 mmHg 48%
    16:00 +32°C° 0 mm 5 m/s 757 mmHg 54%
    17:00 +30°C° 0 mm 5 m/s 757 mmHg 59%
    18:00 +29°C° 0 mm 4 m/s 757 mmHg 66%
    19:00 +27°C° 0 mm 3 m/s 758 mmHg 72%
    20:00 +26°C° 0 mm 3 m/s 759 mmHg 79%
    21:00 +26°C° 0 mm 3 m/s 759 mmHg 81%
    22:00 +25°C° 0 mm 2 m/s 759 mmHg 83%
    23:00 +25°C° 0 mm 2 m/s 759 mmHg 85%

    22 Februarie, Vineri

    Timp Temperatura Precipitaţii Vânt Presiune Umiditate
    00:00 +24°C° 0 mm 2 m/s 758 mmHg 87%
    01:00 +24°C° 0 mm 2 m/s 757 mmHg 89%
    02:00 +24°C° 0 mm 1 m/s 757 mmHg 91%
    03:00 +23°C° 0 mm 1 m/s 757 mmHg 91%
    04:00 +23°C° 0 mm 1 m/s 757 mmHg 92%
    05:00 +23°C° 0 mm 1 m/s 757 mmHg 93%
    06:00 +24°C° 0 mm 1 m/s 757 mmHg 87%
    07:00 +25°C° 0 mm 2 m/s 758 mmHg 81%
    08:00 +27°C° 0 mm 2 m/s 759 mmHg 75%
    09:00 +29°C° 0 mm 2 m/s 759 mmHg 64%
    10:00 +30°C° 0 mm 3 m/s 759 mmHg 54%
    11:00 +33°C° 0 mm 3 m/s 759 mmHg 43%
    12:00 +34°C° 0 mm 4 m/s 758 mmHg 40%
    13:00 +35°C° 0 mm 4 m/s 757 mmHg 36%
    14:00 +35°C° 0 mm 4 m/s 756 mmHg 33%
    15:00 +34°C° 0 mm 4 m/s 756 mmHg 39%
    16:00 +33°C° 0 mm 4 m/s 756 mmHg 45%
    17:00 +30°C° 0 mm 4 m/s 756 mmHg 50%
    18:00 +29°C° 0 mm 3 m/s 756 mmHg 58%
    19:00 +27°C° 0 mm 3 m/s 757 mmHg 66%
    20:00 +26°C° 0 mm 2 m/s 758 mmHg 73%
    21:00 +25°C° 0 mm 2 m/s 758 mmHg 76%
    22:00 +25°C° 0 mm 1 m/s 758 mmHg 78%
    23:00 +24°C° 0 mm 1 m/s 758 mmHg 80%

    23 Februarie, Sâmbătă

    Timp Temperatura Precipitaţii Vânt Presiune Umiditate
    00:00 +24°C° 0 mm 1 m/s 757 mmHg 82%
    01:00 +24°C° 0 mm 1 m/s 756 mmHg 84%
    02:00 +23°C° 0 mm 1 m/s 755 mmHg 85%
    03:00 +23°C° 0 mm 1 m/s 755 mmHg 87%
    04:00 +21°C° 0 mm 2 m/s 755 mmHg 88%
    05:00 +21°C° 0 mm 2 m/s 755 mmHg 90%
    06:00 +23°C° 0 mm 2 m/s 756 mmHg 83%
    07:00 +25°C° 0 mm 2 m/s 757 mmHg 75%
    08:00 +26°C° 0 mm 2 m/s 757 mmHg 68%
    09:00 +29°C° 0 mm 2 m/s 757 mmHg 58%
    10:00 +31°C° 0 mm 2 m/s 757 mmHg 48%
    11:00 +34°C° 0 mm 2 m/s 756 mmHg 37%
    12:00 +35°C° 0 mm 3 m/s 756 mmHg 35%
    13:00 +35°C° 0 mm 3 m/s 755 mmHg 32%
    14:00 +36°C° 0 mm 4 m/s 754 mmHg 29%
    15:00 +35°C° 0 mm 4 m/s 754 mmHg 35%
    16:00 +33°C° 0 mm 3 m/s 754 mmHg 41%
    17:00 +31°C° 0 mm 3 m/s 754 mmHg 47%
    18:00 +29°C° 0 mm 3 m/s 755 mmHg 56%
    19:00 +27°C° 0 mm 2 m/s 756 mmHg 65%
    20:00 +26°C° 0 mm 2 m/s 756 mmHg 74%
    21:00 +25°C° 0 mm 2 m/s 756 mmHg 76%
    22:00 +25°C° 0 mm 1 m/s 756 mmHg 78%
    23:00 +24°C° 0 mm 1 m/s 756 mmHg 81%

    24 Februarie, Duminică

    Timp Temperatura Precipitaţii Vânt Presiune Umiditate
    00:00 +24°C° 0 mm 1 m/s 756 mmHg 82%
    01:00 +24°C° 0 mm 1 m/s 755 mmHg 84%
    02:00 +23°C° 0 mm 1 m/s 754 mmHg 85%
    03:00 +23°C° 0 mm 1 m/s 754 mmHg 86%
    04:00 +23°C° 0 mm 2 m/s 755 mmHg 87%
    05:00 +21°C° 0 mm 2 m/s 755 mmHg 88%
    06:00 +24°C° 0 mm 2 m/s 755 mmHg 80%
    07:00 +25°C° 0 mm 2 m/s 756 mmHg 72%
    08:00 +27°C° 0 mm 2 m/s 756 mmHg 65%
    09:00 +29°C° 0 mm 2 m/s 756 mmHg 55%
    10:00 +31°C° 0 mm 2 m/s 756 mmHg 45%
    11:00 +34°C° 0 mm 2 m/s 756 mmHg 35%
    12:00 +35°C° 0 mm 3 m/s 755 mmHg 32%
    13:00 +36°C° 0 mm 3 m/s 754 mmHg 29%
    14:00 +37°C° 0 mm 4 m/s 753 mmHg 26%
    15:00 +36°C° 0 mm 4 m/s 753 mmHg 34%
    16:00 +34°C° 0 mm 4 m/s 753 mmHg 42%
    17:00 +32°C° 0 mm 5 m/s 753 mmHg 50%
    18:00 +29°C° 0 mm 4 m/s 754 mmHg 59%
    19:00 +27°C° 0 mm 4 m/s 755 mmHg 68%
    20:00 +26°C° 0 mm 3 m/s 755 mmHg 77%
    21:00 +25°C° 0 mm 3 m/s 755 mmHg 79%
    22:00 +25°C° 0 mm 3 m/s 755 mmHg 81%
    23:00 +25°C° 0 mm 3 m/s 755 mmHg 83%
    Arată mai mult